Regional Weather Roundup
Issued by NWS State College, PA

Home | Current Version | Previous Version | Graphics & Text | Print | Product List | Glossary On
Versions: 1 2 3 4 5 6 7 8 9 10 11 12 13 14 15 16 17 18 19 20 21 22 23 24 25 26 27 28 29 30 31 32 33 34 35 36 37 38 39 40 41 42 43 44 45 46 47 48 49 50
549
ASUS41 KCTP 210110
RWRCTP

REGIONAL WEATHER ROUNDUP
NATIONAL WEATHER SERVICE STATE COLLEGE PA
900 PM EDT FRI OCT 20 2017

Note: "fair" indicates few or no clouds below 12,000 feet with no
significant weather and/or obstructions to visibility.

* = STATION THAT DOES NOT REPORT PRECIPITATION /E.G. RAIN...SNOW...ETC/
    THUNDER OR FOG.

PAZ002>004-007>009-013>016-020>023-029>032-210200-
WESTERN PENNSYLVANIA

CITY           SKY/WX    TMP DP  RH WIND       PRES   REMARKS
ERIE           CLEAR     57  42  57 S6        30.19S
MEADVILLE      CLEAR     59  37  44 S5        30.23S
FRANKLIN*      CLEAR     57  34  41 SW3       30.24S
NEW CASTLE     FAIR      50  39  66 CALM      30.23F
BEAVER COUNTY  CLEAR     61  36  39 CALM      30.24S
BUTLER*        CLEAR     53  39  59 CALM      30.24S
PITTSBURGH INT CLEAR     56  40  55 CALM      30.23S
PITTSBURGH     CLEAR     63  34  33 S5        30.23S
INDIANA*       CLEAR     50  41  71 CALM      30.27S
LATROBE        CLEAR     50  43  76 CALM      30.25F
WASHINGTON CO* CLEAR     52  42  69 CALM      30.27R
$$

PAZ004>006-010>012-017>019-024>028-033>037-041-042-045-046-049>053-210200-
CENTRAL PENNSYLVANIA

CITY           SKY/WX    TMP DP  RH WIND       PRES   REMARKS
BRADFORD       CLEAR     48  38  68 CALM      30.24S
DUBOIS           N/A    N/A N/A N/A MISG      30.24S
CLEARFIELD     CLEAR     56  38  50 CALM      30.24F
JOHNSTOWN      CLEAR     59  32  36 CALM      30.26S
ALTOONA        CLEAR     54  39  57 CALM      30.25S
STATE COLLEGE  CLEAR     57  39  51 CALM      30.24R
WILLIAMSPORT   CLEAR     51  43  74 CALM      30.21R
SELINSGROVE    CLEAR     48  46  93 CALM      30.23R
FT INDIANTOWN  CLEAR     51  43  75 CALM      30.21S
CAPITAL CITY   CLEAR     55  43  63 W3        30.22S
HARRISBURG     PTCLDY    53  48  83 CALM      30.21S
YORK           CLEAR     47  45  93 CALM      30.23R
$$

PAZ038>040-043-044-047-048-054-055-060>062-067>071-210200-
EASTERN PENNSYLVANIA

CITY           SKY/WX    TMP DP  RH WIND       PRES   REMARKS
SCRANTON       CLEAR     51  38  60 E3        30.23R
MOUNT POCONO   CLEAR     53  33  46 NW8       30.22S
ALLENTOWN      CLEAR     56  39  53 S3        30.21R
QUAKERTOWN*    CLEAR     50  41  71 CALM      30.21S
READING        CLEAR     52  46  80 CALM      30.21R
LANCASTER      CLEAR     57  41  55 W7        30.21S
COATESVILLE    CLEAR     57  37  47 W3        30.23S
POTTSTOWN      CLEAR     54  41  61 NW3       30.22R
BLUE BELL      CLEAR     48  43  81 CALM      30.22R
DOYLESTOWN     CLEAR     56  39  53 CALM      30.19R
WILLOW GROVE   NOT AVBL
NORTH PHILA    CLEAR     60  41  49 W7        30.21R
PHILADELPHIA   CLEAR     65  39  38 W6        30.21R
$$




USA.gov is the U.S. government's official web portal to all federal, state and local government web resources and services.